This demonstration page uses our WeatherBlox Daily Observations layout. Learn more.

36.17497, -115.13722

Hourly Observations for August 2, 2018

Temp ( °F °C ) Dew Point ( °F °C ) Humidity (%) Winds ( mph kmh ) Pressure ( in mb ) Visibility ( mi km ) Precip ( " mm )
12:53 am 00:53 Clear 96 35.6 52 11.1 23 23 SW 7 11 29.8 1009 10 16.0934 0 0
1:53 am 01:53 Clear 94 34.4 48 8.9 21 21 NNE 5 7 29.81 1009 10 16.0934 0 0
2:53 am 02:53 Clear 92 33.3 48 8.9 22 22 N 5 7 29.81 1010 10 16.0934 0 0
3:53 am 03:53 Clear 91 32.8 50 10 25 25 NW 5 7 29.81 1010 10 16.0934 0 0
4:53 am 04:53 Clear 90 32.2 51 10.6 26 26 Calm 29.82 1010 10 16.0934 0 0
5:53 am 05:53 Sunny 88 31.1 51 10.6 28 28 N 3 6 29.83 1010 10 16.0934 0 0
6:53 am 06:53 Sunny 89 31.7 52 11.1 28 28 NNW 5 7 29.85 1011 10 16.0934 0 0
7:53 am 07:53 Sunny 90 32.2 52 11.1 27 27 Calm 29.86 1011 10 16.0934 0 0
8:53 am 08:53 Sunny 92 33.3 53 11.7 27 27 Calm 29.87 1012 10 16.0934 0 0
9:53 am 09:53 Sunny 96 35.6 51 10.6 22 22 SSE 5 7 29.86 1011 10 16.0934 0 0
10:53 am 10:53 Sunny 101 38.3 52 11.1 19 19 S 10 17 29.85 1011 10 16.0934 0 0
11:53 am 11:53 Partly Cloudy 103 39.4 52 11.1 18 18 SW 13 20 29.83 1010 10 16.0934 0 0
12:13 pm 12:13 Mostly Sunny 106 41.1 52 11.1 17 17 WSW 17 28 29.65 1004 10 16.0934 0 0
12:53 pm 12:53 Sunny 106 41.1 53 11.7 17 17 W 20 31 29.8 1009 10 16.0934 0 0
1:33 pm 13:33 Partly Cloudy with Nearby Thunderstorms 107 41.7 51 10.6 15 15 WSW 15 24 29.62 1003 10 16.0934 0 0
1:53 pm 13:53 Sunny with Nearby Thunderstorms 108 42.2 51 10.6 15 15 W 12 19 29.78 1008 10 16.0934 0 0
2:29 pm 14:29 Partly Cloudy 100 37.8 58 14.4 25 25 S 24 39 29.62 1003 10 16.0934 0 0
2:53 pm 14:53 Mostly Sunny 106 41.1 54 12.2 18 18 WSW 15 24 29.77 1008 10 16.0934 0 0
3:53 pm 15:53 Sunny 100 37.8 58 14.4 25 25 SSW 16 26 29.78 1009 10 16.0934 0 0
4:53 pm 16:53 Sunny 100 37.8 56 13.3 23 23 SW 20 31 29.78 1008 10 16.0934 0 0
5:53 pm 17:53 Sunny 95 35 57 13.9 28 28 SSW 16 26 29.78 1009 10 16.0934 0 0
6:53 pm 18:53 Sunny 95 35 58 14.4 29 29 S 8 13 29.79 1009 10 16.0934 0 0
7:53 pm 19:53 Clear 94 34.4 58 14.4 30 30 ESE 6 9 29.81 1010 10 16.0934 0 0
8:53 pm 20:53 Clear 91 32.8 59 15 34 34 SE 14 22 29.86 1011 10 16.0934 0 0
9:53 pm 21:53 Partly Cloudy 92 33.3 59 15 33 33 E 12 19 29.89 1012 10 16.0934 0 0
10:53 pm 22:53 Clear 88 31.1 60 15.6 39 39 E 14 22 29.91 1013 10 16.0934 0 0
11:53 pm 23:53 Clear 87 30.6 61 16.1 42 42 ESE 12 19 29.92 1013 10 16.0934 0 0

Powered by AerisWeather